KC1IUC-13 Weather Reports


Display with metric or nautical units.
time (UTC)temp
F
wind
direction
speed
MPH
gust
MPH
rain 1hr
in
rain 24hr
in
rain mn
in
humidity
%
barometer
mb
20260504140904 65 173 2.0 7.0 0.00 0.00 0.00 55 1008.0
20260504081804 34 0 0.0 0.0 0.00 0.00 0.00 67 1008.7
20260504080904 34 0 0.0 0.0 0.00 0.00 0.00 67 1008.7
20260504050004 38 0 0.0 0.0 0.00 0.00 0.00 57 1008.3
20260504045404 38 0 0.0 0.0 0.00 0.00 0.00 57 1008.0
20260504044504 38 0 0.0 0.0 0.00 0.00 0.00 57 1008.0
20260504043604 39 0 0.0 0.0 0.00 0.00 0.00 56 1008.3
20260504042704 39 0 0.0 0.0 0.00 0.00 0.00 55 1008.0
20260504041804 39 0 0.0 0.0 0.00 0.00 0.00 55 1008.3
20260504040904 39 0 0.0 0.0 0.00 0.00 0.00 54 1008.0
20260504040004 40 0 0.0 0.0 0.00 0.00 0.00 54 1008.0
20260504035404 40 0 0.0 0.0 0.00 0.00 0.00 53 1008.0
20260504034504 40 0 0.0 0.0 0.00 0.00 0.00 52 1008.0
20260504033604 40 0 0.0 0.0 0.00 0.00 0.00 52 1008.0
20260504032704 41 0 0.0 0.0 0.00 0.00 0.00 51 1008.0
20260504031804 41 0 0.0 0.0 0.00 0.00 0.00 50 1008.0
20260504030904 42 0 0.0 0.0 0.00 0.00 0.00 49 1008.0
20260504030004 43 0 0.0 0.0 0.00 0.00 0.00 49 1008.0
20260504025404 43 0 0.0 0.0 0.00 0.00 0.00 48 1007.6
20260504024504 43 0 0.0 0.0 0.00 0.00 0.00 48 1007.6
20260504023604 44 0 0.0 0.0 0.00 0.00 0.00 47 1007.6
20260504022704 44 0 0.0 0.0 0.00 0.00 0.00 46 1007.6
20260504021804 45 0 0.0 0.0 0.00 0.00 0.00 45 1007.6
20260504020904 45 0 0.0 0.0 0.00 0.00 0.00 44 1007.6
20260504020004 47 0 0.0 0.0 0.00 0.00 0.00 44 1007.6
20260504015404 47 0 0.0 0.0 0.00 0.00 0.00 44 1007.6
20260504014504 48 0 0.0 0.0 0.00 0.00 0.00 44 1007.6
20260504013604 48 0 0.0 0.0 0.00 0.00 0.00 43 1007.6
20260504012704 49 0 0.0 0.0 0.00 0.00 0.00 43 1007.6
20260504011804 49 0 0.0 0.0 0.00 0.00 0.00 43 1007.3
20260504010904 49 0 0.0 0.0 0.00 0.00 0.00 43 1007.3
20260504010004 50 0 0.0 0.0 0.00 0.00 0.00 43 1007.0
20260504005404 50 0 0.0 0.0 0.00 0.00 0.00 43 1007.0
20260504004504 50 0 0.0 0.0 0.00 0.00 0.00 43 1007.0
20260504003604 50 0 0.0 0.0 0.00 0.00 0.00 42 1007.0
20260504002704 50 0 0.0 0.0 0.00 0.00 0.00 42 1006.6
20260504001804 51 0 0.0 0.0 0.00 0.00 0.00 42 1006.6
20260504000904 52 192 0.0 1.0 0.00 0.00 0.00 42 1006.3
20260504000004 52 192 0.0 1.0 0.00 0.00 0.00 42 1006.6
20260503235404 52 192 0.0 1.0 0.00 0.00 0.00 42 1006.3
20260503234504 52 192 0.0 1.0 0.00 0.00 0.00 42 1005.9
20260503233604 52 0 0.0 0.0 0.00 0.00 0.00 42 1005.9
20260503232704 52 192 0.0 1.0 0.00 0.00 0.00 42 1005.9
20260503231804 53 192 0.0 3.0 0.00 0.00 0.00 42 1005.9
20260503230904 53 192 0.0 1.0 0.00 0.00 0.00 42 1005.9
20260503230004 53 192 0.0 3.0 0.00 0.00 0.00 42 1005.9
20260503225404 54 193 1.0 4.0 0.00 0.00 0.00 42 1005.6
20260503224504 54 193 1.0 7.0 0.00 0.00 0.00 42 1005.6
20260503223604 54 216 1.0 7.0 0.00 0.00 0.00 42 1005.9
20260503222704 54 175 1.0 4.0 0.00 0.00 0.00 42 1005.6
20260503221804 54 243 1.0 4.0 0.00 0.00 0.00 43 1005.9
20260503220904 54 175 1.0 3.0 0.00 0.00 0.00 43 1005.6
20260503220004 54 195 0.0 3.0 0.00 0.00 0.00 43 1005.6
20260503215404 54 199 1.0 6.0 0.00 0.00 0.00 43 1005.6
20260503214504 55 117 1.0 4.0 0.00 0.00 0.00 43 1005.6
20260503213604 55 161 1.0 4.0 0.00 0.00 0.00 43 1005.2
20260503212704 55 138 2.0 7.0 0.00 0.00 0.00 43 1005.6
20260503211804 55 99 2.0 7.0 0.00 0.00 0.00 43 1005.6
20260503210904 55 106 1.0 6.0 0.00 0.00 0.00 43 1005.6
20260503210004 55 27 2.0 10.0 0.00 0.00 0.00 43 1005.6
20260503205404 55 24 2.0 10.0 0.00 0.00 0.00 43 1005.2
20260503204504 56 97 2.0 6.0 0.00 0.00 0.00 43 1005.6
20260503203604 55 33 2.0 7.0 0.00 0.00 0.00 43 1005.6
20260503202704 56 313 1.0 7.0 0.00 0.00 0.00 43 1005.6
20260503201804 56 12 2.0 7.0 0.00 0.00 0.00 43 1005.6
20260503200904 57 51 3.0 7.0 0.00 0.00 0.00 44 1005.6
20260503200004 57 36 2.0 7.0 0.00 0.00 0.00 44 1005.6
20260503195404 57 6 3.0 10.0 0.00 0.00 0.00 44 1005.9
20260503194504 58 123 3.0 8.0 0.00 0.00 0.00 45 1005.6
20260503193604 58 79 3.0 14.0 0.00 0.00 0.00 46 1005.9
20260503192704 58 24 2.0 8.0 0.00 0.00 0.00 46 1005.9
20260503191804 58 37 3.0 8.0 0.00 0.00 0.00 46 1005.9
20260503190904 58 41 2.0 7.0 0.00 0.00 0.00 47 1005.9
20260503190004 58 71 2.0 10.0 0.00 0.00 0.00 48 1005.9
20260503185404 58 150 3.0 7.0 0.00 0.00 0.00 49 1005.9
20260503184504 54 6 2.0 7.0 0.00 0.00 0.00 48 1005.9
20260503183604 54 60 2.0 9.0 0.00 0.00 0.00 48 1005.9
20260503182704 55 191 2.0 6.0 0.00 0.00 0.00 49 1005.9
20260503181804 54 76 2.0 9.0 0.00 0.00 0.00 48 1005.9
20260503180904 54 138 1.0 7.0 0.00 0.00 0.00 49 1005.9
20260503180004 55 141 2.0 8.0 0.00 0.00 0.00 49 1005.9
20260503175404 55 143 2.0 9.0 0.00 0.00 0.00 50 1005.9
20260503174504 54 358 2.0 6.0 0.00 0.00 0.00 50 1005.6
20260503173603 55 68 2.0 4.0 0.00 0.00 0.00 51 1005.9
20260503172704 53 353 2.0 6.0 0.00 0.00 0.00 51 1005.9
20260503171804 52 13 2.0 6.0 0.00 0.00 0.00 51 1005.9
20260503170904 53 15 2.0 6.0 0.00 0.00 0.00 52 1005.9
20260503150904 52 337 2.0 10.0 0.00 0.00 0.00 59 1006.6